Location: Unspecified
(0.0000°N, 0.0000°E)
Time: 23:56:46
(UTC+00:00)

X-37B - Visible Passes

Search period start: 01 October 2022 00:00
Search period end: 11 October 2022 00:00
Orbit: 329 x 342 km, 45.0° (Epoch: 29 September)

Date Brightness Start Highest point End Pass type
(mag) Time Alt. Az. Time Alt. Az. Time Alt. Az.
07 Oct 1.6 18:33:39 10° S 18:36:01 24° SE 18:36:46 21° ESE visible
08 Oct 1.2 18:53:41 10° WSW 18:56:23 44° NW 18:57:19 30° N visible
10 Oct 3.4 05:02:55 10° NNE 05:03:57 11° NE 05:05:00 10° ENE visible
